Time,TemperatureF,DewpointF,PressureIn,WindDirection,WindDirectionDegrees,WindSpeedMPH,WindSpeedGustMPH,Humidity,HourlyPrecipIn,Conditions,Clouds,dailyrainin,SolarRadiationWatts/m^2,SoftwareType,DateUTC
2013-09-26 00:02:00,57.0,58.8,29.81,ESE,113,0.0,3.0,60,0.00,,,1.14,0.0,meteohub,2013-09-26 04:02:00,
2013-09-26 00:07:00,57.0,58.8,29.81,SE,132,3.0,3.0,60,0.00,,,0.00,0.0,meteohub,2013-09-26 04:07:00,
2013-09-26 00:12:00,57.0,58.8,29.81,East,92,0.0,4.0,60,0.00,,,0.00,0.0,meteohub,2013-09-26 04:12:00,
2013-09-26 00:17:00,57.0,58.8,29.81,SE,128,0.0,4.0,60,0.00,,,0.00,0.0,meteohub,2013-09-26 04:17:00,
2013-09-26 00:22:00,57.0,58.3,29.81,ENE,73,0.0,4.0,59,0.00,,,0.00,0.0,meteohub,2013-09-26 04:22:00,
2013-09-26 00:27:00,57.0,58.3,29.81,ENE,72,0.0,3.0,59,0.00,,,0.00,0.0,meteohub,2013-09-26 04:27:00,
2013-09-26 00:32:00,57.0,58.8,29.81,ENE,72,0.0,3.0,60,0.00,,,0.00,0.0,meteohub,2013-09-26 04:32:00,
2013-09-26 00:37:00,57.0,58.8,29.81,ENE,72,0.0,3.0,60,0.00,,,0.00,0.0,meteohub,2013-09-26 04:37:00,
2013-09-26 00:42:00,57.0,58.8,29.81,ENE,72,0.0,1.0,60,0.00,,,0.00,0.0,meteohub,2013-09-26 04:42:00,
2013-09-26 00:47:00,57.0,58.8,29.81,ENE,72,0.0,0.0,60,0.00,,,0.00,0.0,meteohub,2013-09-26 04:47:00,
2013-09-26 00:52:00,57.0,58.8,29.81,ENE,72,0.0,1.0,60,0.00,,,0.00,0.0,meteohub,2013-09-26 04:52:00,
2013-09-26 00:57:00,57.0,58.8,29.81,ENE,72,0.0,1.0,60,0.00,,,0.00,0.0,meteohub,2013-09-26 04:57:00,
2013-09-26 01:02:00,57.0,59.0,29.81,ENE,72,0.0,1.0,60,0.00,,,0.00,0.0,meteohub,2013-09-26 05:02:00,
2013-09-26 01:07:00,57.0,58.3,29.81,ENE,72,0.0,0.0,59,0.00,,,0.00,0.0,meteohub,2013-09-26 05:07:00,
2013-09-26 01:12:00,57.0,58.3,29.81,ENE,72,0.0,0.0,59,0.00,,,0.00,0.0,meteohub,2013-09-26 05:12:00,
2013-09-26 01:17:00,57.0,58.8,29.81,ENE,72,0.0,0.0,60,0.00,,,0.00,0.0,meteohub,2013-09-26 05:17:00,
2013-09-26 01:22:00,57.0,58.8,29.81,ENE,72,0.0,0.0,60,0.00,,,0.00,0.0,meteohub,2013-09-26 05:22:00,
2013-09-26 01:27:00,57.0,58.8,29.81,ENE,72,0.0,0.0,60,0.00,,,0.00,0.0,meteohub,2013-09-26 05:27:00,
2013-09-26 01:32:00,57.0,58.8,29.81,ENE,72,0.0,0.0,60,0.00,,,0.00,0.0,meteohub,2013-09-26 05:32:00,
2013-09-26 01:37:00,56.8,58.8,29.81,East,97,0.0,0.0,60,0.00,,,0.00,0.0,meteohub,2013-09-26 05:37:00,
2013-09-26 01:42:00,56.8,58.3,29.81,East,97,0.0,1.0,59,0.00,,,0.00,0.0,meteohub,2013-09-26 05:42:00,
2013-09-26 01:47:00,56.8,58.3,29.81,ESE,122,2.0,2.0,59,0.00,,,0.00,0.0,meteohub,2013-09-26 05:47:00,
2013-09-26 01:52:00,56.8,58.8,29.81,ESE,113,1.0,4.0,60,0.00,,,0.00,0.0,meteohub,2013-09-26 05:52:00,
2013-09-26 01:57:00,56.8,58.8,29.81,SE,139,0.0,4.0,60,0.01,,,0.01,0.0,meteohub,2013-09-26 05:57:00,
2013-09-26 02:02:00,56.8,58.8,29.81,SE,139,0.0,4.0,60,0.01,,,0.01,0.0,meteohub,2013-09-26 06:02:00,
2013-09-26 02:07:00,56.8,58.8,29.81,SE,139,1.0,3.0,60,0.01,,,0.01,0.0,meteohub,2013-09-26 06:07:00,
2013-09-26 02:12:00,56.8,58.8,29.81,SE,139,0.0,3.0,60,0.01,,,0.01,0.0,meteohub,2013-09-26 06:12:00,
2013-09-26 02:17:00,56.8,58.8,29.81,SE,139,0.0,1.0,60,0.01,,,0.01,0.0,meteohub,2013-09-26 06:17:00,
2013-09-26 02:22:00,56.8,58.8,29.81,SE,139,0.0,1.0,60,0.01,,,0.01,0.0,meteohub,2013-09-26 06:22:00,
2013-09-26 02:27:00,56.8,58.3,29.81,SE,139,0.0,1.0,59,0.01,,,0.01,0.0,meteohub,2013-09-26 06:27:00,
2013-09-26 02:32:00,56.8,58.3,29.81,SE,139,0.0,1.0,59,0.01,,,0.01,0.0,meteohub,2013-09-26 06:32:00,
2013-09-26 02:37:00,56.8,58.8,29.81,SE,139,0.0,1.0,60,0.01,,,0.01,0.0,meteohub,2013-09-26 06:37:00,
2013-09-26 02:42:00,56.8,58.8,29.81,SE,139,0.0,1.0,60,0.01,,,0.01,0.0,meteohub,2013-09-26 06:42:00,
2013-09-26 02:47:00,56.8,58.8,29.81,SE,139,0.0,1.0,60,0.01,,,0.01,0.0,meteohub,2013-09-26 06:47:00,
2013-09-26 02:52:00,56.8,58.8,29.80,SE,139,0.0,0.0,60,0.01,,,0.01,0.0,meteohub,2013-09-26 06:52:00,
2013-09-26 02:57:00,56.8,58.8,29.80,SE,139,0.0,0.0,60,0.00,,,0.01,0.0,meteohub,2013-09-26 06:57:00,
2013-09-26 03:02:00,56.8,57.9,29.80,SE,139,0.0,1.0,58,0.00,,,0.01,0.0,meteohub,2013-09-26 07:02:00,
2013-09-26 03:07:00,56.7,58.3,29.80,SE,139,0.0,1.0,59,0.00,,,0.01,0.0,meteohub,2013-09-26 07:07:00,
2013-09-26 03:12:00,56.7,58.8,29.80,SE,139,0.0,0.0,60,0.00,,,0.01,0.0,meteohub,2013-09-26 07:12:00,
2013-09-26 03:17:00,56.7,58.8,29.80,SE,139,0.0,0.0,60,0.00,,,0.01,0.0,meteohub,2013-09-26 07:17:00,
2013-09-26 03:22:00,56.7,58.8,29.80,SE,139,0.0,0.0,60,0.00,,,0.01,0.0,meteohub,2013-09-26 07:22:00,
2013-09-26 03:27:00,56.7,58.8,29.80,SE,139,0.0,0.0,60,0.00,,,0.01,0.0,meteohub,2013-09-26 07:27:00,
2013-09-26 03:32:00,56.7,58.8,29.80,SE,139,0.0,0.0,60,0.00,,,0.01,0.0,meteohub,2013-09-26 07:32:00,
2013-09-26 03:37:00,56.7,58.8,29.80,SE,139,0.0,0.0,60,0.00,,,0.01,0.0,meteohub,2013-09-26 07:37:00,
2013-09-26 03:42:00,56.7,58.8,29.80,SE,139,0.0,1.0,60,0.00,,,0.01,0.0,meteohub,2013-09-26 07:42:00,
2013-09-26 03:47:00,56.7,58.3,29.80,SE,139,0.0,1.0,59,0.00,,,0.01,0.0,meteohub,2013-09-26 07:47:00,
2013-09-26 03:52:00,56.5,58.3,29.80,SE,139,0.0,1.0,59,0.00,,,0.01,0.0,meteohub,2013-09-26 07:52:00,
2013-09-26 03:57:00,56.5,58.3,29.80,SE,139,0.0,1.0,59,0.00,,,0.01,0.0,meteohub,2013-09-26 07:57:00,
2013-09-26 04:02:00,56.5,58.8,29.80,SE,139,0.0,1.0,60,0.00,,,0.01,0.0,meteohub,2013-09-26 08:02:00,
2013-09-26 04:07:00,56.5,58.8,29.80,SE,139,0.0,0.0,60,0.00,,,0.01,0.0,meteohub,2013-09-26 08:07:00,
2013-09-26 04:12:00,56.5,58.8,29.80,SE,139,0.0,0.0,60,0.00,,,0.01,0.0,meteohub,2013-09-26 08:12:00,
2013-09-26 04:17:00,56.5,58.8,29.80,SE,139,0.0,0.0,60,0.00,,,0.01,0.0,meteohub,2013-09-26 08:17:00,
2013-09-26 04:22:00,56.5,58.8,29.80,SE,139,0.0,0.0,60,0.00,,,0.01,0.0,meteohub,2013-09-26 08:22:00,
2013-09-26 04:27:00,56.5,58.8,29.80,SE,139,0.0,0.0,60,0.00,,,0.01,0.0,meteohub,2013-09-26 08:27:00,
2013-09-26 04:32:00,56.5,57.9,29.80,SE,139,0.0,0.0,58,0.00,,,0.01,0.0,meteohub,2013-09-26 08:32:00,
2013-09-26 04:37:00,56.5,58.3,29.80,SE,139,0.0,0.0,59,0.00,,,0.01,0.0,meteohub,2013-09-26 08:37:00,
2013-09-26 04:42:00,56.7,58.3,29.80,SE,139,0.0,0.0,59,0.00,,,0.01,0.0,meteohub,2013-09-26 08:42:00,
2013-09-26 04:47:00,56.7,58.8,29.80,SE,139,0.0,0.0,60,0.00,,,0.01,0.0,meteohub,2013-09-26 08:47:00,
2013-09-26 04:52:00,56.7,58.8,29.80,SE,139,0.0,0.0,60,0.00,,,0.01,0.0,meteohub,2013-09-26 08:52:00,
2013-09-26 04:57:00,56.7,58.8,29.80,SE,139,0.0,0.0,60,0.00,,,0.01,0.0,meteohub,2013-09-26 08:57:00,
2013-09-26 05:02:00,56.7,58.8,29.81,SE,139,0.0,0.0,60,0.00,,,0.01,0.0,meteohub,2013-09-26 09:02:00,
2013-09-26 05:07:00,56.7,57.9,29.81,SE,139,0.0,0.0,58,0.00,,,0.01,0.0,meteohub,2013-09-26 09:07:00,
2013-09-26 05:12:00,56.7,58.3,29.81,SE,139,0.0,1.0,59,0.00,,,0.01,0.0,meteohub,2013-09-26 09:12:00,
2013-09-26 05:17:00,56.5,58.5,29.81,SE,139,0.0,1.0,60,0.00,,,0.01,0.0,meteohub,2013-09-26 09:17:00,
2013-09-26 05:22:00,56.5,58.5,29.81,SE,138,0.0,2.0,60,0.00,,,0.01,0.0,meteohub,2013-09-26 09:22:00,
2013-09-26 05:27:00,56.5,58.5,29.81,SE,139,0.0,2.0,60,0.00,,,0.01,0.0,meteohub,2013-09-26 09:27:00,
2013-09-26 05:32:00,56.3,58.8,29.81,SE,139,0.0,2.0,60,0.00,,,0.01,0.0,meteohub,2013-09-26 09:32:00,
2013-09-26 05:37:00,56.3,58.8,29.81,SE,139,0.0,1.0,60,0.00,,,0.01,0.0,meteohub,2013-09-26 09:37:00,
2013-09-26 05:42:00,56.5,57.9,29.81,SE,139,0.0,1.0,58,0.00,,,0.01,0.0,meteohub,2013-09-26 09:42:00,
2013-09-26 05:47:00,56.5,58.3,29.81,SE,139,0.0,0.0,59,0.00,,,0.01,0.0,meteohub,2013-09-26 09:47:00,
2013-09-26 05:52:00,56.5,58.8,29.81,SE,139,0.0,0.0,60,0.00,,,0.01,0.0,meteohub,2013-09-26 09:52:00,
2013-09-26 05:57:00,56.5,58.8,29.81,SE,138,0.0,0.0,60,0.00,,,0.01,0.0,meteohub,2013-09-26 09:57:00,
2013-09-26 06:02:00,56.5,58.8,29.81,SE,139,0.0,0.0,60,0.00,,,0.01,0.0,meteohub,2013-09-26 10:02:00,
2013-09-26 06:07:00,56.5,58.8,29.81,SE,139,0.0,0.0,60,0.00,,,0.01,0.0,meteohub,2013-09-26 10:07:00,
2013-09-26 06:12:00,56.5,57.9,29.81,SE,139,0.0,0.0,58,0.00,,,0.01,0.0,meteohub,2013-09-26 10:12:00,
2013-09-26 06:17:00,56.5,58.3,29.81,SE,139,0.0,0.0,59,0.00,,,0.01,0.0,meteohub,2013-09-26 10:17:00,
2013-09-26 06:22:00,56.5,58.8,29.81,SE,139,0.0,0.0,60,0.00,,,0.01,0.0,meteohub,2013-09-26 10:22:00,
2013-09-26 06:27:00,56.5,59.0,29.81,SE,139,0.0,0.0,60,0.00,,,0.01,0.0,meteohub,2013-09-26 10:27:00,
2013-09-26 06:32:00,56.5,59.0,29.81,SE,139,0.0,0.0,60,0.00,,,0.01,0.0,meteohub,2013-09-26 10:32:00,
2013-09-26 06:37:00,56.5,59.2,29.81,SE,138,0.0,0.0,60,0.00,,,0.01,0.0,meteohub,2013-09-26 10:37:00,
2013-09-26 06:42:00,56.5,59.2,29.82,SE,139,0.0,0.0,60,0.00,,,0.01,0.0,meteohub,2013-09-26 10:42:00,
2013-09-26 06:47:00,56.7,58.3,29.82,SE,139,0.0,0.0,58,0.00,,,0.01,0.0,meteohub,2013-09-26 10:47:00,
2013-09-26 06:52:00,56.7,58.6,29.82,SE,139,1.0,0.0,59,0.00,,,0.01,0.0,meteohub,2013-09-26 10:52:00,
2013-09-26 06:57:00,56.7,59.2,29.83,SE,139,0.0,1.0,60,0.00,,,0.01,0.0,meteohub,2013-09-26 10:57:00,
2013-09-26 07:02:00,56.7,59.2,29.83,SE,139,0.0,1.0,60,0.00,,,0.01,0.0,meteohub,2013-09-26 11:02:00,
2013-09-26 07:07:00,56.7,59.2,29.83,SE,127,1.0,1.0,60,0.00,,,0.01,0.0,meteohub,2013-09-26 11:07:00,
2013-09-26 07:12:00,56.7,59.4,29.83,North,355,1.0,2.0,60,0.00,,,0.01,0.0,meteohub,2013-09-26 11:12:00,
2013-09-26 07:17:00,56.7,59.4,29.83,NNW,342,0.0,3.0,60,0.00,,,0.01,0.0,meteohub,2013-09-26 11:17:00,
2013-09-26 07:22:00,56.7,59.5,29.84,NNW,342,0.0,3.0,60,0.00,,,0.01,0.0,meteohub,2013-09-26 11:22:00,
2013-09-26 07:27:00,56.7,58.6,29.84,NNW,342,0.0,3.0,58,0.00,,,0.01,0.0,meteohub,2013-09-26 11:27:00,
2013-09-26 07:32:00,56.7,58.8,29.84,NNW,342,0.0,2.0,59,0.00,,,0.01,5.0,meteohub,2013-09-26 11:32:00,
2013-09-26 07:37:00,56.7,59.4,29.85,NNW,342,0.0,0.0,60,0.00,,,0.01,5.0,meteohub,2013-09-26 11:37:00,
2013-09-26 07:42:00,56.7,59.4,29.85,NNW,342,0.0,0.0,60,0.00,,,0.01,9.0,meteohub,2013-09-26 11:42:00,
2013-09-26 07:47:00,56.7,59.4,29.85,NNW,342,0.0,0.0,60,0.00,,,0.01,9.0,meteohub,2013-09-26 11:47:00,
2013-09-26 07:52:00,56.8,58.8,29.85,NNW,342,0.0,0.0,59,0.00,,,0.01,12.0,meteohub,2013-09-26 11:52:00,
2013-09-26 07:57:00,56.8,58.8,29.86,NNW,342,0.0,0.0,59,0.00,,,0.01,14.0,meteohub,2013-09-26 11:57:00,
2013-09-26 08:02:00,56.8,59.2,29.86,NNW,342,0.0,0.0,60,0.00,,,0.01,16.0,meteohub,2013-09-26 12:02:00,
2013-09-26 08:07:00,56.8,59.7,29.86,NNW,342,0.0,0.0,61,0.00,,,0.01,19.0,meteohub,2013-09-26 12:07:00,
2013-09-26 08:12:00,56.8,59.7,29.86,NNW,342,0.0,0.0,61,0.00,,,0.01,25.0,meteohub,2013-09-26 12:12:00,
2013-09-26 08:17:00,56.8,59.7,29.86,NNW,342,0.0,0.0,61,0.00,,,0.01,35.0,meteohub,2013-09-26 12:17:00,
2013-09-26 08:22:00,57.0,59.5,29.86,NNW,342,0.0,0.0,60,0.00,,,0.01,44.0,meteohub,2013-09-26 12:22:00,
2013-09-26 08:27:00,57.0,58.6,29.86,NNW,342,0.0,0.0,58,0.00,,,0.01,42.0,meteohub,2013-09-26 12:27:00,
2013-09-26 08:32:00,57.0,59.0,29.86,NNW,342,0.0,0.0,59,0.00,,,0.01,44.0,meteohub,2013-09-26 12:32:00,
2013-09-26 08:37:00,57.0,59.5,29.86,NNW,342,0.0,0.0,60,0.00,,,0.01,54.0,meteohub,2013-09-26 12:37:00,
2013-09-26 08:42:00,57.2,59.9,29.86,NNW,342,0.0,0.0,61,0.00,,,0.01,62.0,meteohub,2013-09-26 12:42:00,
2013-09-26 08:47:00,57.4,59.9,29.86,NNW,342,0.0,0.0,61,0.00,,,0.01,60.0,meteohub,2013-09-26 12:47:00,
2013-09-26 08:52:00,57.4,59.0,29.86,NNW,342,0.0,2.0,59,0.00,,,0.01,81.0,meteohub,2013-09-26 12:52:00,
2013-09-26 08:57:00,57.6,59.0,29.87,NW,312,0.0,2.0,59,0.00,,,0.01,97.0,meteohub,2013-09-26 12:57:00,
2013-09-26 09:02:00,57.7,59.5,29.87,NW,312,0.0,2.0,60,0.00,,,0.01,74.0,meteohub,2013-09-26 13:02:00,
2013-09-26 09:07:00,57.7,59.9,29.87,NW,312,1.0,2.0,61,0.00,,,0.01,83.0,meteohub,2013-09-26 13:07:00,
2013-09-26 09:12:00,57.9,59.7,29.87,NW,312,0.0,1.0,60,0.00,,,0.01,116.0,meteohub,2013-09-26 13:12:00,
2013-09-26 09:17:00,58.3,59.7,29.88,NW,312,0.0,1.0,60,0.00,,,0.01,125.0,meteohub,2013-09-26 13:17:00,
2013-09-26 09:22:00,58.5,58.8,29.88,NW,312,1.0,1.0,58,0.00,,,0.01,121.0,meteohub,2013-09-26 13:22:00,
2013-09-26 09:27:00,58.6,59.2,29.88,NW,312,0.0,1.0,59,0.00,,,0.01,144.0,meteohub,2013-09-26 13:27:00,
2013-09-26 09:32:00,58.8,59.7,29.88,West,273,1.0,3.0,60,0.00,,,0.01,186.0,meteohub,2013-09-26 13:32:00,
2013-09-26 09:37:00,59.0,59.7,29.88,WNW,292,0.0,3.0,60,0.00,,,0.01,171.0,meteohub,2013-09-26 13:37:00,
2013-09-26 09:42:00,59.2,59.7,29.88,WNW,292,0.0,4.0,60,0.00,,,0.01,169.0,meteohub,2013-09-26 13:42:00,
2013-09-26 09:47:00,59.4,59.9,29.88,WNW,292,1.0,4.0,60,0.00,,,0.01,176.0,meteohub,2013-09-26 13:47:00,
2013-09-26 09:52:00,59.5,58.8,29.88,SW,230,0.0,2.0,58,0.00,,,0.01,183.0,meteohub,2013-09-26 13:52:00,
2013-09-26 09:57:00,59.5,58.8,29.88,WSW,242,0.0,2.0,58,0.00,,,0.01,172.0,meteohub,2013-09-26 13:57:00,
2013-09-26 10:02:00,59.7,59.2,29.89,WSW,242,0.0,3.0,59,0.00,,,0.01,153.0,meteohub,2013-09-26 14:02:00,
2013-09-26 10:07:00,59.7,59.9,29.88,WNW,296,0.0,3.0,60,0.00,,,0.01,185.0,meteohub,2013-09-26 14:07:00,
2013-09-26 10:12:00,60.1,59.9,29.89,WNW,296,0.0,3.0,60,0.00,,,0.01,190.0,meteohub,2013-09-26 14:12:00,
2013-09-26 10:17:00,60.3,59.9,29.89,SW,220,0.0,1.0,60,0.00,,,0.01,193.0,meteohub,2013-09-26 14:17:00,
2013-09-26 10:22:00,60.3,58.8,29.89,SW,220,0.0,1.0,58,0.00,,,0.01,179.0,meteohub,2013-09-26 14:22:00,
2013-09-26 10:27:00,60.4,58.8,29.89,SW,220,0.0,3.0,58,0.00,,,0.01,132.0,meteohub,2013-09-26 14:27:00,
2013-09-26 10:32:00,60.6,59.4,29.89,SW,220,0.0,3.0,59,0.00,,,0.01,162.0,meteohub,2013-09-26 14:32:00,
2013-09-26 10:37:00,60.8,59.9,29.89,SW,221,0.0,2.0,60,0.00,,,0.01,190.0,meteohub,2013-09-26 14:37:00,
2013-09-26 10:42:00,60.8,60.1,29.89,SW,221,0.0,2.0,60,0.00,,,0.01,209.0,meteohub,2013-09-26 14:42:00,
2013-09-26 10:47:00,61.5,60.1,29.89,SW,221,0.0,2.0,60,0.00,,,0.01,251.0,meteohub,2013-09-26 14:47:00,
2013-09-26 10:52:00,61.5,59.0,29.89,SW,221,0.0,2.0,58,0.00,,,0.01,206.0,meteohub,2013-09-26 14:52:00,
2013-09-26 10:57:00,61.7,58.8,29.89,SW,230,0.0,1.0,58,0.00,,,0.01,167.0,meteohub,2013-09-26 14:57:00,
2013-09-26 11:02:00,61.5,59.4,29.89,SW,230,0.0,2.0,59,0.00,,,0.01,193.0,meteohub,2013-09-26 15:02:00,
2013-09-26 11:07:00,61.7,59.9,29.89,SSW,206,3.0,3.0,60,0.00,,,0.01,253.0,meteohub,2013-09-26 15:07:00,
2013-09-26 11:12:00,61.3,60.1,29.89,SSW,206,0.0,4.0,60,0.00,,,0.01,218.0,meteohub,2013-09-26 15:12:00,
2013-09-26 11:17:00,62.2,59.5,29.89,SSW,206,0.0,4.0,59,0.00,,,0.01,179.0,meteohub,2013-09-26 15:17:00,
2013-09-26 11:22:00,62.1,59.0,29.89,SSW,206,0.0,4.0,58,0.00,,,0.01,148.0,meteohub,2013-09-26 15:22:00,
2013-09-26 11:27:00,62.2,59.5,29.89,SSW,206,0.0,2.0,59,0.00,,,0.01,218.0,meteohub,2013-09-26 15:27:00,
2013-09-26 11:32:00,62.8,59.5,29.89,SSW,206,2.0,2.0,59,0.00,,,0.01,244.0,meteohub,2013-09-26 15:32:00,
2013-09-26 11:37:00,62.2,60.1,29.89,SSW,206,0.0,2.0,60,0.00,,,0.01,241.0,meteohub,2013-09-26 15:37:00,
2013-09-26 11:42:00,62.8,60.1,29.88,SSW,206,1.0,2.0,60,0.00,,,0.01,220.0,meteohub,2013-09-26 15:42:00,
2013-09-26 11:47:00,62.8,59.2,29.89,SSW,206,0.0,2.0,58,0.00,,,0.01,218.0,meteohub,2013-09-26 15:47:00,
2013-09-26 11:52:00,62.6,59.5,29.89,SSW,206,0.0,2.0,59,0.00,,,0.01,248.0,meteohub,2013-09-26 15:52:00,
2013-09-26 12:02:00,63.0,60.3,29.89,ESE,123,1.0,4.0,60,0.00,,,0.01,315.0,meteohub,2013-09-26 16:02:00,
2013-09-26 12:07:00,63.7,60.3,29.89,SSE,163,1.0,6.0,60,0.00,,,0.01,299.0,meteohub,2013-09-26 16:07:00,
2013-09-26 12:12:00,63.5,59.2,29.89,South,187,2.0,6.0,58,0.00,,,0.01,297.0,meteohub,2013-09-26 16:12:00,
2013-09-26 12:17:00,63.7,59.2,29.89,South,169,0.0,6.0,58,0.00,,,0.01,306.0,meteohub,2013-09-26 16:17:00,
2013-09-26 12:22:00,63.9,59.7,29.89,SSE,153,0.0,4.0,59,0.00,,,0.01,274.0,meteohub,2013-09-26 16:22:00,
2013-09-26 12:27:00,64.0,60.4,29.89,SE,146,0.0,4.0,60,0.00,,,0.01,257.0,meteohub,2013-09-26 16:27:00,
2013-09-26 12:32:00,64.6,60.4,29.89,SE,144,3.0,4.0,60,0.00,,,0.01,272.0,meteohub,2013-09-26 16:32:00,
2013-09-26 12:37:00,64.8,59.4,29.89,SSE,164,1.0,4.0,58,0.00,,,0.01,429.0,meteohub,2013-09-26 16:37:00,
2013-09-26 12:42:00,65.1,59.9,29.89,SSE,157,0.0,4.0,59,0.00,,,0.01,406.0,meteohub,2013-09-26 16:42:00,
2013-09-26 12:47:00,66.0,59.9,29.88,South,176,0.0,4.0,59,0.00,,,0.01,406.0,meteohub,2013-09-26 16:47:00,
2013-09-26 12:52:00,66.6,60.4,29.88,SE,129,1.0,4.0,60,0.00,,,0.01,334.0,meteohub,2013-09-26 16:52:00,
2013-09-26 12:57:00,66.2,60.1,29.88,ESE,103,0.0,5.0,59,0.00,,,0.01,264.0,meteohub,2013-09-26 16:57:00,
2013-09-26 13:02:00,66.2,59.4,29.88,SE,134,0.0,5.0,58,0.00,,,0.01,151.0,meteohub,2013-09-26 17:02:00,
2013-09-26 13:07:00,65.8,59.9,29.88,SE,140,1.0,5.0,59,0.00,,,0.01,127.0,meteohub,2013-09-26 17:07:00,
2013-09-26 13:12:00,65.5,59.9,29.88,West,275,2.0,5.0,59,0.00,,,0.01,165.0,meteohub,2013-09-26 17:12:00,
2013-09-26 13:17:00,65.1,59.9,29.88,West,274,3.0,5.0,59,0.00,,,0.01,216.0,meteohub,2013-09-26 17:17:00,
2013-09-26 13:22:00,64.9,59.4,29.88,West,274,2.0,4.0,58,0.00,,,0.01,336.0,meteohub,2013-09-26 17:22:00,
2013-09-26 13:27:00,65.7,59.9,29.88,South,172,3.0,4.0,59,0.00,,,0.01,385.0,meteohub,2013-09-26 17:27:00,
2013-09-26 13:32:00,66.2,60.4,29.88,ESE,121,4.0,6.0,60,0.00,,,0.01,768.0,meteohub,2013-09-26 17:32:00,
2013-09-26 13:37:00,67.3,60.4,29.88,South,189,3.0,6.0,60,0.00,,,0.01,357.0,meteohub,2013-09-26 17:37:00,
2013-09-26 13:42:00,67.6,59.4,29.88,East,96,0.0,6.0,58,0.00,,,0.01,251.0,meteohub,2013-09-26 17:42:00,
2013-09-26 13:47:00,67.5,59.4,29.88,North,0,1.0,6.0,58,0.00,,,0.01,165.0,meteohub,2013-09-26 17:47:00,
2013-09-26 13:52:00,67.6,59.9,29.88,NNW,344,3.0,7.0,59,0.00,,,0.01,979.0,meteohub,2013-09-26 17:52:00,
2013-09-26 13:57:00,67.6,59.9,29.87,SW,227,2.0,7.0,59,0.00,,,0.01,355.0,meteohub,2013-09-26 17:57:00,
2013-09-26 14:02:00,67.8,60.1,29.87,WNW,288,3.0,10.0,59,0.00,,,0.01,302.0,meteohub,2013-09-26 18:02:00,
2013-09-26 14:07:00,67.1,59.5,29.87,WSW,248,3.0,10.0,58,0.00,,,0.01,171.0,meteohub,2013-09-26 18:07:00,
2013-09-26 14:12:00,66.7,59.5,29.87,West,269,1.0,6.0,58,0.00,,,0.01,893.0,meteohub,2013-09-26 18:12:00,
2013-09-26 14:17:00,68.5,59.9,29.87,WSW,246,0.0,6.0,59,0.00,,,0.01,940.0,meteohub,2013-09-26 18:17:00,
2013-09-26 14:22:00,69.3,60.4,29.87,WNW,284,2.0,5.0,60,0.00,,,0.01,810.0,meteohub,2013-09-26 18:22:00,
2013-09-26 14:27:00,69.4,60.1,29.86,West,261,3.0,8.0,59,0.00,,,0.01,963.0,meteohub,2013-09-26 18:27:00,
2013-09-26 14:32:00,70.0,59.5,29.86,WSW,242,1.0,9.0,58,0.00,,,0.01,420.0,meteohub,2013-09-26 18:32:00,
2013-09-26 14:37:00,68.5,60.1,29.86,SSW,205,0.0,9.0,59,0.00,,,0.01,155.0,meteohub,2013-09-26 18:37:00,
2013-09-26 14:47:00,67.6,60.1,29.86,NW,311,1.0,5.0,59,0.00,,,0.01,107.0,meteohub,2013-09-26 18:47:00,
2013-09-26 14:52:00,67.3,59.5,29.86,West,259,0.0,4.0,58,0.00,,,0.01,107.0,meteohub,2013-09-26 18:52:00,
2013-09-26 14:57:00,66.9,60.1,29.86,West,270,2.0,4.0,59,0.00,,,0.01,788.0,meteohub,2013-09-26 18:57:00,
2013-09-26 15:02:00,68.7,60.4,29.86,WSW,254,2.0,6.0,60,0.00,,,0.01,789.0,meteohub,2013-09-26 19:02:00,
2013-09-26 15:07:00,70.2,60.6,29.86,SW,232,0.0,6.0,60,0.00,,,0.01,798.0,meteohub,2013-09-26 19:07:00,
2013-09-26 15:12:00,70.5,59.7,29.86,NNW,328,1.0,6.0,58,0.00,,,0.01,835.0,meteohub,2013-09-26 19:12:00,
2013-09-26 15:17:00,70.3,59.7,29.86,West,261,0.0,8.0,58,0.00,,,0.01,916.0,meteohub,2013-09-26 19:17:00,
2013-09-26 15:27:00,70.5,60.6,29.86,WSW,250,1.0,8.0,60,0.00,,,0.01,204.0,meteohub,2013-09-26 19:27:00,
2013-09-26 15:32:00,69.3,60.3,29.86,West,266,1.0,8.0,59,0.00,,,0.01,218.0,meteohub,2013-09-26 19:32:00,
2013-09-26 15:37:00,69.1,60.3,29.86,NNW,332,4.0,8.0,59,0.00,,,0.01,190.0,meteohub,2013-09-26 19:37:00,
2013-09-26 15:42:00,68.9,60.6,29.86,SE,136,1.0,6.0,60,0.00,,,0.01,199.0,meteohub,2013-09-26 19:42:00,
2013-09-26 15:47:00,68.5,60.8,29.86,South,180,3.0,6.0,60,0.00,,,0.01,118.0,meteohub,2013-09-26 19:47:00,
2013-09-26 15:52:00,68.2,59.9,29.86,SW,219,0.0,5.0,58,0.00,,,0.01,74.0,meteohub,2013-09-26 19:52:00,
2013-09-26 15:57:00,67.5,59.9,29.86,WNW,294,0.0,9.0,58,0.00,,,0.01,72.0,meteohub,2013-09-26 19:57:00,
2013-09-26 16:02:00,66.7,60.4,29.86,WNW,296,3.0,9.0,59,0.00,,,0.01,83.0,meteohub,2013-09-26 20:02:00,
2013-09-26 16:07:00,66.0,60.8,29.86,NW,304,0.0,9.0,60,0.00,,,0.01,144.0,meteohub,2013-09-26 20:07:00,
2013-09-26 16:12:00,66.6,60.4,29.86,NW,314,0.0,5.0,59,0.00,,,0.01,520.0,meteohub,2013-09-26 20:12:00,
2013-09-26 16:17:00,68.2,59.7,29.86,WSW,255,3.0,5.0,58,0.00,,,0.01,619.0,meteohub,2013-09-26 20:17:00,
2013-09-26 16:22:00,69.6,60.3,29.86,SW,233,3.0,6.0,59,0.00,,,0.01,638.0,meteohub,2013-09-26 20:22:00,
2013-09-26 16:27:00,70.3,60.6,29.86,NNW,330,0.0,6.0,60,0.00,,,0.01,659.0,meteohub,2013-09-26 20:27:00,
2013-09-26 16:32:00,70.2,59.7,29.86,ESE,117,2.0,6.0,58,0.00,,,0.01,125.0,meteohub,2013-09-26 20:32:00,
2013-09-26 16:37:00,69.6,59.7,29.86,SSW,213,3.0,6.0,58,0.00,,,0.01,128.0,meteohub,2013-09-26 20:37:00,
2013-09-26 16:42:00,68.7,60.3,29.87,WNW,288,1.0,6.0,59,0.00,,,0.01,123.0,meteohub,2013-09-26 20:42:00,
2013-09-26 16:47:00,68.4,60.3,29.87,SW,234,0.0,5.0,59,0.00,,,0.01,98.0,meteohub,2013-09-26 20:47:00,
2013-09-26 16:52:00,67.8,59.7,29.87,NE,43,2.0,4.0,58,0.00,,,0.01,216.0,meteohub,2013-09-26 20:52:00,
2013-09-26 17:02:00,69.3,60.1,29.87,West,277,1.0,4.0,59,0.00,,,0.01,446.0,meteohub,2013-09-26 21:02:00,
2013-09-26 17:07:00,69.6,60.1,29.87,WSW,252,2.0,5.0,59,0.00,,,0.01,452.0,meteohub,2013-09-26 21:07:00,
2013-09-26 17:12:00,69.6,59.5,29.87,WNW,288,0.0,5.0,58,0.00,,,0.01,443.0,meteohub,2013-09-26 21:12:00,
2013-09-26 17:17:00,70.2,59.0,29.87,ENE,70,0.0,6.0,57,0.00,,,0.01,329.0,meteohub,2013-09-26 21:17:00,
2013-09-26 17:22:00,69.3,59.5,29.87,SSE,168,3.0,6.0,58,0.00,,,0.01,394.0,meteohub,2013-09-26 21:22:00,
2013-09-26 17:27:00,69.3,59.9,29.87,South,180,2.0,6.0,59,0.00,,,0.01,390.0,meteohub,2013-09-26 21:27:00,
2013-09-26 17:32:00,69.4,59.9,29.87,SW,218,0.0,5.0,59,0.00,,,0.01,381.0,meteohub,2013-09-26 21:32:00,
2013-09-26 17:37:00,69.6,59.0,29.87,SSW,196,1.0,5.0,57,0.00,,,0.01,396.0,meteohub,2013-09-26 21:37:00,
2013-09-26 17:42:00,70.0,59.2,29.87,West,272,2.0,5.0,58,0.00,,,0.01,322.0,meteohub,2013-09-26 21:42:00,
2013-09-26 17:47:00,69.3,59.7,29.87,SSW,193,5.0,5.0,59,0.00,,,0.01,330.0,meteohub,2013-09-26 21:47:00,
2013-09-26 17:52:00,68.5,59.5,29.88,WNW,296,2.0,6.0,59,0.00,,,0.01,287.0,meteohub,2013-09-26 21:52:00,
2013-09-26 17:57:00,67.8,59.5,29.88,SE,128,2.0,6.0,59,0.00,,,0.01,62.0,meteohub,2013-09-26 21:57:00,
2013-09-26 18:02:00,67.5,59.0,29.88,South,176,0.0,7.0,58,0.00,,,0.01,63.0,meteohub,2013-09-26 22:02:00,
2013-09-26 18:07:00,66.9,59.0,29.88,NW,316,1.0,7.0,58,0.00,,,0.01,58.0,meteohub,2013-09-26 22:07:00,
2013-09-26 18:12:00,66.6,59.4,29.88,WSW,246,0.0,5.0,59,0.00,,,0.01,47.0,meteohub,2013-09-26 22:12:00,
2013-09-26 18:17:00,66.6,59.9,29.88,SSW,195,3.0,5.0,60,0.00,,,0.01,165.0,meteohub,2013-09-26 22:17:00,
2013-09-26 18:22:00,66.6,59.4,29.88,SSW,195,0.0,5.0,59,0.00,,,0.01,144.0,meteohub,2013-09-26 22:22:00,
2013-09-26 18:27:00,66.6,58.8,29.88,NW,314,0.0,4.0,58,0.00,,,0.01,127.0,meteohub,2013-09-26 22:27:00,
2013-09-26 18:32:00,66.6,59.2,29.88,SW,217,2.0,4.0,59,0.00,,,0.01,109.0,meteohub,2013-09-26 22:32:00,
2013-09-26 18:37:00,66.4,59.2,29.89,SSW,194,0.0,4.0,59,0.00,,,0.01,88.0,meteohub,2013-09-26 22:37:00,
2013-09-26 18:42:00,66.2,59.7,29.89,ESE,116,1.0,4.0,60,0.00,,,0.01,72.0,meteohub,2013-09-26 22:42:00,
2013-09-26 18:47:00,65.5,59.7,29.89,ESE,115,0.0,4.0,60,0.00,,,0.01,56.0,meteohub,2013-09-26 22:47:00,
2013-09-26 18:52:00,65.1,59.9,29.89,ESE,115,0.0,3.0,60,0.00,,,0.01,35.0,meteohub,2013-09-26 22:52:00,
2013-09-26 18:57:00,64.0,58.8,29.90,ESE,113,0.0,3.0,58,0.00,,,0.01,18.0,meteohub,2013-09-26 22:57:00,
2013-09-26 19:02:00,63.0,59.2,29.90,ESE,113,0.0,2.0,59,0.00,,,0.01,18.0,meteohub,2013-09-26 23:02:00,
2013-09-26 19:07:00,62.4,59.2,29.90,ESE,112,0.0,2.0,59,0.00,,,0.01,14.0,meteohub,2013-09-26 23:07:00,
2013-09-26 19:12:00,62.2,59.7,29.90,ENE,75,0.0,2.0,60,0.00,,,0.01,11.0,meteohub,2013-09-26 23:12:00,
2013-09-26 19:17:00,61.9,59.7,29.90,ENE,75,0.0,2.0,60,0.00,,,0.01,7.0,meteohub,2013-09-26 23:17:00,
2013-09-26 19:22:00,61.2,59.7,29.91,ESE,119,0.0,2.0,60,0.00,,,0.01,5.0,meteohub,2013-09-26 23:22:00,
2013-09-26 19:27:00,60.6,59.2,29.90,ESE,119,0.0,2.0,59,0.00,,,0.01,0.0,meteohub,2013-09-26 23:27:00,
2013-09-26 19:32:00,60.3,59.2,29.90,NE,51,0.0,2.0,59,0.00,,,0.01,0.0,meteohub,2013-09-26 23:32:00,
2013-09-26 19:37:00,60.3,59.0,29.90,East,86,0.0,5.0,59,0.00,,,0.01,0.0,meteohub,2013-09-26 23:37:00,
2013-09-26 19:42:00,59.9,59.5,29.90,NNE,32,2.0,5.0,60,0.00,,,0.01,0.0,meteohub,2013-09-26 23:42:00,
2013-09-26 19:47:00,59.4,59.5,29.91,NNE,32,0.0,5.0,60,0.00,,,0.01,0.0,meteohub,2013-09-26 23:47:00,
2013-09-26 19:52:00,58.8,59.5,29.91,NNE,32,0.0,5.0,60,0.00,,,0.01,0.0,meteohub,2013-09-26 23:52:00,
2013-09-26 19:57:00,58.5,59.7,29.91,NNE,32,0.0,2.0,60,0.00,,,0.01,0.0,meteohub,2013-09-26 23:57:00,
2013-09-26 20:02:00,58.3,59.2,29.91,NNE,32,0.0,0.0,59,0.00,,,0.01,0.0,meteohub,2013-09-27 00:02:00,
2013-09-26 20:07:00,57.9,58.6,29.91,NNE,32,0.0,0.0,58,0.00,,,0.01,0.0,meteohub,2013-09-27 00:07:00,
2013-09-26 20:12:00,57.7,59.0,29.91,NNE,32,0.0,0.0,59,0.00,,,0.01,0.0,meteohub,2013-09-27 00:12:00,
2013-09-26 20:17:00,57.4,59.5,29.91,NNE,32,0.0,0.0,60,0.00,,,0.01,0.0,meteohub,2013-09-27 00:17:00,
2013-09-26 20:22:00,57.0,59.5,29.92,NNE,32,0.0,0.0,60,0.00,,,0.01,0.0,meteohub,2013-09-27 00:22:00,
2013-09-26 20:27:00,56.8,59.5,29.92,NNE,32,0.0,0.0,60,0.00,,,0.01,0.0,meteohub,2013-09-27 00:27:00,
2013-09-26 20:32:00,56.7,59.5,29.92,NNE,32,0.0,0.0,60,0.00,,,0.01,0.0,meteohub,2013-09-27 00:32:00,
2013-09-26 20:37:00,56.5,59.0,29.92,NNE,32,0.0,0.0,59,0.00,,,0.01,0.0,meteohub,2013-09-27 00:37:00,
2013-09-26 20:42:00,56.5,58.6,29.92,NNE,32,0.0,0.0,58,0.00,,,0.01,0.0,meteohub,2013-09-27 00:42:00,
2013-09-26 20:47:00,56.1,58.8,29.93,NNE,32,0.0,0.0,59,0.00,,,0.01,0.0,meteohub,2013-09-27 00:47:00,
2013-09-26 20:52:00,55.9,59.4,29.93,NNE,32,0.0,0.0,60,0.00,,,0.01,0.0,meteohub,2013-09-27 00:52:00,
2013-09-26 20:57:00,55.8,59.4,29.93,NNE,32,0.0,0.0,60,0.00,,,0.01,0.0,meteohub,2013-09-27 00:57:00,
2013-09-26 21:02:00,55.6,59.4,29.94,NNE,32,0.0,0.0,60,0.00,,,0.01,0.0,meteohub,2013-09-27 01:02:00,
2013-09-26 21:07:00,55.2,59.5,29.94,NNE,32,0.0,0.0,60,0.00,,,0.01,0.0,meteohub,2013-09-27 01:07:00,
2013-09-26 21:12:00,55.0,59.0,29.94,NNE,32,0.0,0.0,59,0.00,,,0.01,0.0,meteohub,2013-09-27 01:12:00,
2013-09-26 21:17:00,55.0,58.8,29.94,NNE,32,0.0,0.0,59,0.00,,,0.01,0.0,meteohub,2013-09-27 01:17:00,
2013-09-26 21:22:00,54.9,58.8,29.94,NNE,32,0.0,0.0,59,0.00,,,0.01,0.0,meteohub,2013-09-27 01:22:00,
2013-09-26 21:27:00,54.9,59.4,29.95,NNE,32,0.0,0.0,60,0.00,,,0.01,0.0,meteohub,2013-09-27 01:27:00,
2013-09-26 21:37:00,54.7,59.4,29.95,NNE,32,0.0,0.0,60,0.00,,,0.01,0.0,meteohub,2013-09-27 01:37:00,
2013-09-26 21:42:00,54.7,59.4,29.95,NNE,32,0.0,0.0,60,0.00,,,0.01,0.0,meteohub,2013-09-27 01:42:00,
2013-09-26 21:47:00,54.7,58.5,29.95,NNE,32,0.0,0.0,58,0.00,,,0.01,0.0,meteohub,2013-09-27 01:47:00,
2013-09-26 21:52:00,54.7,58.5,29.95,NNE,32,0.0,0.0,58,0.00,,,0.01,0.0,meteohub,2013-09-27 01:52:00,
2013-09-26 21:57:00,54.7,58.6,29.96,NNE,32,0.0,0.0,59,0.00,,,0.01,0.0,meteohub,2013-09-27 01:57:00,
2013-09-26 22:02:00,54.7,58.6,29.95,NNE,32,0.0,0.0,59,0.00,,,0.01,0.0,meteohub,2013-09-27 02:02:00,
2013-09-26 22:07:00,54.9,59.2,29.96,NNE,32,0.0,0.0,60,0.00,,,0.01,0.0,meteohub,2013-09-27 02:07:00,
2013-09-26 22:12:00,54.7,59.2,29.96,NNE,32,0.0,0.0,60,0.00,,,0.01,0.0,meteohub,2013-09-27 02:12:00,
2013-09-26 22:17:00,54.3,59.4,29.96,NNE,32,0.0,0.0,60,0.00,,,0.01,0.0,meteohub,2013-09-27 02:17:00,
2013-09-26 22:22:00,54.1,58.8,29.96,NNE,32,0.0,0.0,59,0.00,,,0.01,0.0,meteohub,2013-09-27 02:22:00,
2013-09-26 22:27:00,54.1,58.5,29.96,NNE,32,0.0,0.0,58,0.00,,,0.01,0.0,meteohub,2013-09-27 02:27:00,
2013-09-26 22:32:00,54.0,58.6,29.96,NNE,32,0.0,0.0,59,0.00,,,0.01,0.0,meteohub,2013-09-27 02:32:00,
2013-09-26 22:37:00,54.0,58.6,29.96,NNE,32,0.0,0.0,59,0.00,,,0.01,0.0,meteohub,2013-09-27 02:37:00,
2013-09-26 22:42:00,53.8,59.2,29.96,NNE,32,0.0,0.0,60,0.00,,,0.01,0.0,meteohub,2013-09-27 02:42:00,
2013-09-26 22:47:00,53.8,59.2,29.96,NNE,32,0.0,0.0,60,0.00,,,0.01,0.0,meteohub,2013-09-27 02:47:00,
2013-09-26 22:52:00,53.8,59.2,29.96,NNE,32,0.0,0.0,60,0.00,,,0.01,0.0,meteohub,2013-09-27 02:52:00,
2013-09-26 22:57:00,53.4,59.2,29.96,NNE,32,0.0,0.0,60,0.00,,,0.01,0.0,meteohub,2013-09-27 02:57:00,
2013-09-26 23:02:00,53.4,58.6,29.96,NNE,32,0.0,0.0,59,0.00,,,0.01,0.0,meteohub,2013-09-27 03:02:00,
2013-09-26 23:07:00,53.2,58.3,29.96,NNE,33,0.0,1.0,58,0.00,,,0.01,0.0,meteohub,2013-09-27 03:07:00,
2013-09-26 23:12:00,53.1,58.6,29.96,NNE,33,0.0,1.0,59,0.00,,,0.01,0.0,meteohub,2013-09-27 03:12:00,
2013-09-26 23:17:00,53.1,58.5,29.96,NNE,33,0.0,1.0,59,0.00,,,0.01,0.0,meteohub,2013-09-27 03:17:00,
2013-09-26 23:22:00,53.2,58.5,29.96,NNE,33,0.0,0.0,59,0.00,,,0.01,0.0,meteohub,2013-09-27 03:22:00,
2013-09-26 23:27:00,53.1,58.5,29.96,NNE,33,0.0,0.0,59,0.00,,,0.01,0.0,meteohub,2013-09-27 03:27:00,
2013-09-26 23:32:00,53.1,58.6,29.96,NNE,33,0.0,0.0,59,0.00,,,0.01,0.0,meteohub,2013-09-27 03:32:00,
2013-09-26 23:42:00,53.1,58.6,29.97,NNE,33,0.0,0.0,59,0.00,,,0.01,0.0,meteohub,2013-09-27 03:42:00,
2013-09-26 23:47:00,53.1,58.3,29.97,NNE,33,0.0,0.0,58,0.00,,,0.01,0.0,meteohub,2013-09-27 03:47:00,
2013-09-26 23:52:00,53.4,58.1,29.97,NNE,33,0.0,0.0,58,0.00,,,0.01,0.0,meteohub,2013-09-27 03:52:00,
2013-09-26 23:57:00,53.6,58.5,29.97,NNE,33,0.0,0.0,59,0.00,,,0.01,0.0,meteohub,2013-09-27 03:57:00,